Powrót do katalogu

BEIDOU 15

AktywnyNawigacjaMEO
NORAD 38775·PAYLOAD·🇨🇳 China

Wystrzelony Sep 18, 2012 z Xichang Satellite Launch Center

Loading…

Następne Przeloty (najbliższe 24 godziny)

TLE

ŚwieżeSource: Space-Track

Epoka: Sep 14, 2026, 12:03 UTC

1 38775U 12050B   26257.50230771 -.00000048  00000-0  00000-0 0  9998
2 38775  56.6267  59.9458 0010921   4.1523 355.8681  1.86230944 94974

Śledź BEIDOU 15 w czasie rzeczywistym z AllMySat

Download on the App Store